Time,TemperatureF,DewpointF,PressureIn,WindDirection,WindDirectionDegrees,WindSpeedMPH,WindSpeedGustMPH,Humidity,HourlyPrecipIn,Conditions,Clouds,dailyrainin,SoftwareType,DateUTC
2013-01-31 00:04:00,56.0,-99.9,-100.00,North,-999,-999.0,-999.0,-999,0.02,,,0.10,,2013-01-31 05:04:00,
2013-01-31 00:12:00,56.0,-99.9,-100.00,North,-999,-999.0,-999.0,-999,0.02,,,0.10,,2013-01-31 05:12:00,
2013-01-31 00:42:00,54.0,-99.9,-100.00,North,-999,-999.0,-999.0,-999,0.01,,,0.11,,2013-01-31 05:42:00,
2013-01-31 00:52:00,54.0,-99.9,-100.00,North,-999,-999.0,-999.0,-999,0.01,,,0.11,,2013-01-31 05:52:00,
2013-01-31 01:01:00,54.0,-99.9,-100.00,North,-999,-999.0,-999.0,-999,0.01,,,0.11,,2013-01-31 06:01:00,
2013-01-31 01:11:00,54.0,-99.9,-100.00,North,-999,-999.0,-999.0,-999,0.01,,,0.11,,2013-01-31 06:11:00,
2013-01-31 10:04:00,53.0,-99.9,-100.00,North,-999,-999.0,-999.0,-999,-99.99,,,0.31,,2013-01-31 15:04:00,
2013-01-31 10:12:00,53.0,-99.9,-100.00,North,-999,-999.0,-999.0,-999,-99.99,,,0.31,,2013-01-31 15:12:00,
2013-01-31 10:43:00,49.0,-99.9,-100.00,North,-999,-999.0,-999.0,-999,-99.99,,,0.31,,2013-01-31 15:43:00,
2013-01-31 10:53:00,49.0,-99.9,-100.00,North,-999,-999.0,-999.0,-999,-99.99,,,0.31,,2013-01-31 15:53:00,
2013-01-31 11:04:00,49.0,-99.9,-100.00,North,-999,-999.0,-999.0,-999,-99.99,,,0.31,,2013-01-31 16:04:00,
2013-01-31 11:13:00,49.0,-99.9,-100.00,North,-999,-999.0,-999.0,-999,-99.99,,,0.31,,2013-01-31 16:13:00,
2013-01-31 11:42:00,47.0,-99.9,-100.00,North,-999,-999.0,-999.0,-999,-99.99,,,0.31,,2013-01-31 16:42:00,
2013-01-31 11:53:00,47.0,-99.9,-100.00,North,-999,-999.0,-999.0,-999,-99.99,,,0.31,,2013-01-31 16:53:00,
2013-01-31 12:03:00,47.0,-99.9,-100.00,North,-999,-999.0,-999.0,-999,-99.99,,,0.31,,2013-01-31 17:03:00,
2013-01-31 12:13:00,47.0,-99.9,-100.00,North,-999,-999.0,-999.0,-999,-99.99,,,0.31,,2013-01-31 17:13:00,
2013-01-31 12:44:00,46.0,-99.9,-100.00,North,-999,-999.0,-999.0,-999,-99.99,,,0.31,,2013-01-31 17:44:00,
2013-01-31 12:54:00,46.0,-99.9,-100.00,North,-999,-999.0,-999.0,-999,-99.99,,,0.31,,2013-01-31 17:54:00,
2013-01-31 13:04:00,46.0,-99.9,-100.00,North,-999,-999.0,-999.0,-999,-99.99,,,0.31,,2013-01-31 18:04:00,
2013-01-31 13:13:00,46.0,-99.9,-100.00,North,-999,-999.0,-999.0,-999,-99.99,,,0.31,,2013-01-31 18:13:00,
2013-01-31 13:43:00,46.0,-99.9,-100.00,North,-999,-999.0,-999.0,-999,0.00,,,0.31,,2013-01-31 18:43:00,
2013-01-31 13:53:00,46.0,-99.9,-100.00,North,-999,-999.0,-999.0,-999,0.00,,,0.31,,2013-01-31 18:53:00,
2013-01-31 14:03:00,46.0,-99.9,-100.00,North,-999,-999.0,-999.0,-999,0.00,,,0.31,,2013-01-31 19:03:00,
2013-01-31 14:13:00,46.0,-99.9,-100.00,North,-999,-999.0,-999.0,-999,0.00,,,0.31,,2013-01-31 19:13:00,
2013-01-31 14:43:00,43.0,-99.9,-100.00,North,-999,-999.0,-999.0,-999,0.00,,,0.31,,2013-01-31 19:43:00,
2013-01-31 14:53:00,43.0,-99.9,-100.00,North,-999,-999.0,-999.0,-999,0.00,,,0.31,,2013-01-31 19:53:00,
2013-01-31 15:03:00,43.0,-99.9,-100.00,North,-999,-999.0,-999.0,-999,0.00,,,0.31,,2013-01-31 20:03:00,
2013-01-31 15:12:00,43.0,-99.9,-100.00,North,-999,-999.0,-999.0,-999,0.00,,,0.31,,2013-01-31 20:12:00,
2013-01-31 15:42:00,42.0,-99.9,-100.00,North,-999,-999.0,-999.0,-999,0.00,,,0.31,,2013-01-31 20:42:00,
2013-01-31 15:53:00,42.0,-99.9,-100.00,North,-999,-999.0,-999.0,-999,0.00,,,0.31,,2013-01-31 20:53:00,
2013-01-31 16:03:00,42.0,-99.9,-100.00,North,-999,-999.0,-999.0,-999,0.00,,,0.31,,2013-01-31 21:03:00,
2013-01-31 16:13:00,42.0,-99.9,-100.00,North,-999,-999.0,-999.0,-999,0.00,,,0.31,,2013-01-31 21:13:00,
2013-01-31 17:33:00,40.0,-99.9,-100.00,North,-999,-999.0,-999.0,-999,-99.99,,,0.30,,2013-01-31 22:33:00,
2013-01-31 18:43:00,38.0,-99.9,-100.00,North,-999,-999.0,-999.0,-999,-99.99,,,0.30,,2013-01-31 23:43:00,
2013-01-31 18:52:00,38.0,-99.9,-100.00,North,-999,-999.0,-999.0,-999,-99.99,,,0.30,,2013-01-31 23:52:00,
2013-01-31 19:32:00,34.0,-99.9,-100.00,North,-999,-999.0,-999.0,-999,-99.99,,,0.30,,2013-02-01 00:32:00,
2013-01-31 19:42:00,34.0,-99.9,-100.00,North,-999,-999.0,-999.0,-999,-99.99,,,0.30,,2013-02-01 00:42:00,
2013-01-31 19:52:00,34.0,-99.9,-100.00,North,-999,-999.0,-999.0,-999,-99.99,,,0.30,,2013-02-01 00:52:00,
2013-01-31 20:02:00,34.0,-99.9,-100.00,North,-999,-999.0,-999.0,-999,-99.99,,,0.30,,2013-02-01 01:02:00,
2013-01-31 20:12:00,34.0,-99.9,-100.00,North,-999,-999.0,-999.0,-999,-99.99,,,0.30,,2013-02-01 01:12:00,
2013-01-31 20:42:00,36.0,-99.9,-100.00,North,-999,-999.0,-999.0,-999,0.00,,,0.30,,2013-02-01 01:42:00,
2013-01-31 20:52:00,36.0,-99.9,-100.00,North,-999,-999.0,-999.0,-999,0.00,,,0.30,,2013-02-01 01:52:00,
2013-01-31 21:03:00,36.0,-99.9,-100.00,North,-999,-999.0,-999.0,-999,0.00,,,0.30,,2013-02-01 02:03:00,
2013-01-31 21:42:00,34.0,-99.9,-100.00,North,-999,-999.0,-999.0,-999,-99.99,,,0.29,,2013-02-01 02:42:00,
2013-01-31 21:53:00,34.0,-99.9,-100.00,North,-999,-999.0,-999.0,-999,-99.99,,,0.29,,2013-02-01 02:53:00,
2013-01-31 22:02:00,34.0,-99.9,-100.00,North,-999,-999.0,-999.0,-999,-99.99,,,0.29,,2013-02-01 03:02:00,
2013-01-31 22:12:00,34.0,-99.9,-100.00,North,-999,-999.0,-999.0,-999,-99.99,,,0.29,,2013-02-01 03:12:00,
2013-01-31 22:42:00,33.0,-99.9,-100.00,North,-999,-999.0,-999.0,-999,-99.99,,,0.28,,2013-02-01 03:42:00,
2013-01-31 22:52:00,33.0,-99.9,-100.00,North,-999,-999.0,-999.0,-999,-99.99,,,0.28,,2013-02-01 03:52:00,
2013-01-31 23:02:00,33.0,-99.9,-100.00,North,-999,-999.0,-999.0,-999,-99.99,,,0.28,,2013-02-01 04:02:00,
2013-01-31 23:12:00,33.0,-99.9,-100.00,North,-999,-999.0,-999.0,-999,-99.99,,,0.28,,2013-02-01 04:12:00,
2013-01-31 23:42:00,32.0,-99.9,-100.00,North,-999,-999.0,-999.0,-999,-99.99,,,0.26,,2013-02-01 04:42:00,
2013-01-31 23:52:00,32.0,-99.9,-100.00,North,-999,-999.0,-999.0,-999,-99.99,,,0.26,,2013-02-01 04:52:00,